Mumbai, India

10:10 AM IST on April 23, 2018 (GMT +0530)
Chhatrapati Shivaji International

Weather History for VABB - March, 2012

Change the Weather History Date:

Sunday, March 18, 2012

  Actual Average Record
Temperature  
Mean Temperature 80 °F -  
Max Temperature 96 °F 89 °F 100 °F (1998)
Min Temperature 63 °F 73 °F 63 °F (2015)
Cooling Degree Days 14    
Growing Degree Days 30 (Base 50)    
Moisture  
Dew Point 56 °F    
Average Humidity 42    
Maximum Humidity 76    
Minimum Humidity 10    
Precipitation  
Precipitation 0.00 in - - ()
Sea Level Pressure  
Sea Level Pressure 29.85 in    
Wind  
Wind Speed 4 mph ()    
Max Wind Speed 14 mph    
Max Gust Speed -    
Visibility 2.1 miles    
Events      
Averages and records for this station are not official NWS values.
T = Trace of Precipitation, MM = Missing Value Source: Averaged Metar Reports

Daily Weather History Graph

Daily Weather History Graph

Search for Another Location

Airport or City:

Astronomy

Mar. 18, 2012 Rise Set
Actual Time 6:44 AM IST 6:49 PM IST
Civil Twilight 6:22 AM IST 7:10 PM IST
Nautical Twilight 5:57 AM IST 7:36 PM IST
Astronomical Twilight 5:31 AM IST 8:01 PM IST
Moon 3:35 AM IST (3/18) 3:16 PM IST (3/18)
Length of Visible Light 12h 48m
Length of Day
12h 04m
Waning Crescent, 18% of the Moon is Illuminated
Mar 18
Waning Crescent
Mar 22
New
Mar 31
First Quarter
Apr 7
Full
Apr 13
Last Quarter

Hourly Weather History & Observations

Time (IST) Temp. Heat Index Dew Point Humidity Pressure Visibility Wind Dir Wind Speed Gust Speed Precip Events Conditions
12:10 AM 78.8 °F - 68.0 °F 69% 29.86 in - NW 5.8 mph - N/A   Smoke
12:40 AM 78.8 °F - 68.0 °F 69% 29.83 in - NW 5.8 mph - N/A   Smoke
1:10 AM 78.8 °F - 66.2 °F 65% 29.83 in - Calm Calm - N/A   Smoke
1:40 AM 78.8 °F - 64.4 °F 61% 29.83 in 2.2 mi North 4.6 mph - N/A   Smoke
2:10 AM 78.8 °F - 60.8 °F 54% 29.83 in 2.2 mi Calm Calm - N/A   Smoke
2:30 AM 71 °F - 65 °F 76% 29.81 in 1 mi Calm Calm - -   Haze
2:40 AM 78.8 °F - 59.0 °F 51% 29.80 in 2.2 mi Calm Calm - N/A   Smoke
3:10 AM 80.6 °F 80.3 °F 53.6 °F 39% 29.80 in 2.2 mi North 4.6 mph - N/A   Smoke
3:40 AM 78.8 °F - 57.2 °F 47% 29.80 in 2.2 mi Calm Calm - N/A   Smoke
4:10 AM 77.0 °F - 55.4 °F 47% 29.80 in 2.2 mi Calm Calm - N/A   Smoke
4:40 AM 75.2 °F - 57.2 °F 53% 29.80 in 2.2 mi Calm Calm - N/A   Smoke
5:10 AM 75.2 °F - 59.0 °F 57% 29.80 in 2.2 mi Calm Calm - N/A   Smoke
5:30 AM 65 °F - 59 °F 75% 29.83 in 1 mi Calm Calm - -   Haze
6:10 AM 77.0 °F - 59.0 °F 54% 29.83 in 1.7 mi Calm Calm - N/A   Smoke
6:40 AM 77.0 °F - 59.0 °F 54% 29.86 in 1.6 mi Calm Calm - N/A   Smoke
7:10 AM 77.0 °F - 59.0 °F 54% 29.86 in 1.4 mi Calm Calm - N/A   Smoke
7:40 AM 77.0 °F - 60.8 °F 57% 29.89 in 1.6 mi Calm Calm - N/A   Smoke
8:10 AM 78.8 °F - 55.4 °F 44% 29.89 in 1.4 mi Calm Calm - N/A   Smoke
8:30 AM 73 °F - 64 °F 66% 29.91 in 1 mi Calm Calm - -   Smoke
8:40 AM 80.6 °F 80.5 °F 55.4 °F 42% 29.92 in 1.6 mi Calm Calm - N/A   Smoke
9:10 AM 82.4 °F 82.0 °F 57.2 °F 42% 29.92 in 1.3 mi Calm Calm - N/A   Smoke
10:40 AM 89.6 °F - 48.2 °F 24% 29.92 in 1.9 mi West 4.6 mph - N/A   Smoke
11:10 AM 89.6 °F 89.5 °F 60.8 °F 38% 29.92 in 1.9 mi WSW 10.4 mph - N/A   Smoke
11:30 AM 91 °F - 64 °F 31% 29.92 in 1 mi West 9.2 mph - -   Smoke
11:40 AM 89.6 °F 90.1 °F 62.6 °F 40% 29.92 in 1.9 mi WSW 12.7 mph - N/A   Smoke
12:10 PM 91.4 °F 91.4 °F 60.8 °F 36% 29.89 in 2.2 mi WSW 11.5 mph - N/A   Smoke
12:40 PM 93.2 °F 93.3 °F 60.8 °F 34% 29.86 in 2.2 mi WSW 12.7 mph - N/A   Smoke
1:10 PM 93.2 °F 92.6 °F 59.0 °F 32% 29.86 in 2.5 mi West 12.7 mph - N/A   Smoke
1:40 PM 95.0 °F 93.0 °F 55.4 °F 26% 29.83 in 2.5 mi NW 10.4 mph - N/A   Smoke
2:10 PM 96.8 °F - 51.8 °F 22% 29.83 in 2.5 mi NW 11.5 mph - N/A   Smoke
2:40 PM 96.8 °F 94.4 °F 53.6 °F 23% 29.83 in 2.5 mi NW 10.4 mph - N/A   Smoke
3:10 PM 96.8 °F - 51.8 °F 22% 29.80 in 2.5 mi NW 9.2 mph - N/A   Smoke
3:40 PM 96.8 °F - 50.0 °F 20% 29.80 in 2.5 mi NNW 12.7 mph - N/A   Smoke
4:10 PM 96.8 °F - 44.6 °F 17% 29.80 in 2.5 mi NW 10.4 mph - N/A   Smoke
4:40 PM 95.0 °F - 42.8 °F 16% 29.80 in 2.5 mi NNW 13.8 mph - N/A   Smoke
5:10 PM 95.0 °F - 42.8 °F 16% 29.80 in 2.5 mi NW 11.5 mph - N/A   Smoke
5:30 PM 94 °F - 43 °F 10% 29.80 in 2 mi NW 9.2 mph - -   Smoke
5:40 PM 95.0 °F - 44.6 °F 18% 29.80 in 2.5 mi NW 11.5 mph - N/A   Smoke
6:10 PM 93.2 °F - 44.6 °F 19% 29.80 in 2.5 mi NW 11.5 mph - N/A   Smoke
6:40 PM 91.4 °F - 44.6 °F 20% 29.83 in 2.5 mi NW 9.2 mph - N/A   Smoke
7:10 PM 91.4 °F - 44.6 °F 20% 29.83 in 2.5 mi NW 6.9 mph - N/A   Smoke
7:40 PM 91.4 °F - 41.0 °F 17% 29.83 in 2.5 mi Calm Calm - N/A   Smoke
8:10 PM 89.6 °F - 42.8 °F 20% 29.86 in 2.5 mi Calm Calm - N/A   Smoke
8:30 PM 78 °F - 54 °F 33% 29.86 in 1 mi Calm Calm - -   Smoke
8:40 PM 89.6 °F - 39.2 °F 17% 29.86 in 2.5 mi NNW 5.8 mph - N/A   Smoke
9:10 PM 89.6 °F - 41.0 °F 18% 29.86 in 2.5 mi NW 5.8 mph - N/A   Smoke
9:40 PM 82.4 °F 85.4 °F 68.0 °F 62% 29.89 in 2.5 mi WNW 9.2 mph - N/A   Smoke
10:10 PM 80.6 °F 82.7 °F 66.2 °F 61% 29.89 in 2.5 mi Variable 2.3 mph - N/A   Smoke
10:40 PM 78.8 °F - 68.0 °F 69% 29.89 in 2.5 mi NW 6.9 mph - N/A   Smoke
11:10 PM 78.8 °F - 68.0 °F 69% 29.89 in 2.5 mi NW 6.9 mph - N/A   Smoke
11:30 PM 77 °F - 69 °F 69% 29.90 in 1 mi Calm Calm - -   Haze
11:40 PM 77.0 °F - 68.0 °F 74% 29.89 in 2.5 mi WNW 4.6 mph - N/A   Smoke